EHI
0 0 0 0 0 0 0 0 0 0 0 0 0 0 4 10 13 16 22 28 32 33 38 42 41 42 50 59 59 52 44 38 31 25 20 19 16 11 9 14 23 25 19 15
0 0 0 0 0 0 0 0 0 0 0 0 0 0 3 8 12 15 21 28 33 37 46 54 52 49 58 67 65 57 49 44 35 26 19 18 17 14 13 19 27 28 21 17
0 0 0 0 0 0 0 0 0 0 0 0 0 0 1 5 10 15 19 27 35 42 54 63 62 60 66 73 70 63 60 55 43 32 22 19 22 23 25 30 34 32 25 21
0 0 0 0 0 0 0 0 0 0 0 0 0 0 0 2 7 12 17 25 34 43 54 63 65 64 67 71 70 68 68 63 52 40 30 25 26 29 35 40 39 34 28 24
0 0 0 0 0 0 0 0 0 1 1 1 0 0 0 1 4 8 12 21 32 40 49 59 65 66 66 67 68 71 72 67 58 46 36 30 27 28 35 40 39 35 30 27
0 0 0 0 0 0 0 0 1 2 2 1 0 0 1 2 4 5 8 15 27 36 44 56 66 69 68 66 67 73 75 69 60 50 41 35 29 30 35 38 37 33 31 30
0 0 0 0 0 0 0 0 1 1 1 0 0 1 4 7 9 10 11 14 23 33 43 54 65 71 71 68 70 76 77 72 64 55 48 42 36 34 37 39 37 32 31 30
0 0 0 0 0 0 0 0 0 0 0 0 1 4 9 13 15 17 17 17 21 30 39 49 61 68 69 70 74 79 80 75 68 59 52 48 44 37 36 38 36 32 28 27
0 0 0 0 0 0 0 0 0 0 0 0 2 7 12 16 17 18 18 18 20 25 33 42 54 62 64 68 74 79 82 79 72 65 58 53 49 43 37 36 35 32 28 26
0 0 0 0 0 0 0 0 0 0 0 0 2 6 12 16 17 15 14 16 19 23 29 37 45 52 56 61 68 76 82 80 75 71 65 59 55 50 43 39 37 35 32 32
0 0 0 0 0 0 0 0 0 0 0 0 1 6 12 15 14 12 13 16 19 22 27 34 40 45 50 54 61 72 80 80 76 75 72 69 66 62 55 48 44 43 43 44
0 0 0 0 0 0 0 0 0 0 0 0 1 5 11 12 11 12 15 19 20 21 25 33 39 44 49 55 62 71 77 78 77 77 79 79 78 73 65 58 54 53 54 56
0 0 0 0 0 0 0 0 0 0 0 0 1 4 10 12 14 17 22 25 24 24 25 31 40 47 53 60 67 72 74 74 74 76 79 81 79 74 68 63 62 60 59 59
0 0 0 0 0 0 0 0 0 1 0 0 1 4 10 17 21 25 30 32 29 29 30 32 39 48 55 61 67 70 71 70 70 72 74 74 72 68 64 63 64 63 59 55
0 0 0 0 0 0 0 0 0 0 0 0 2 5 13 22 27 31 35 35 33 35 36 38 43 50 55 59 63 65 68 70 71 71 70 68 64 62 63 64 64 61 56 52
0 0 0 0 0 0 0 0 0 0 0 1 3 9 17 26 31 34 36 36 36 38 39 41 47 53 56 58 58 59 62 66 70 70 67 63 60 60 61 62 61 57 52 50
0 0 0 0 0 0 0 0 0 1 2 4 8 16 24 30 34 36 38 37 38 39 38 39 45 52 56 56 55 54 55 57 61 62 59 55 55 56 56 56 55 52 50 49
0 0 0 0 0 0 1 1 1 3 7 10 15 24 29 32 33 36 37 38 38 37 36 35 38 44 50 51 50 49 49 49 50 51 48 45 46 48 48 50 50 49 48 48
1 1 0 0 0 0 1 1 1 4 10 14 20 28 32 31 29 30 33 35 36 35 33 33 33 38 44 46 45 45 45 45 44 42 40 38 39 39 41 45 47 45 44 44
0 0 0 0 0 1 2 1 1 4 11 15 22 30 33 30 27 27 29 32 32 32 31 32 34 38 41 42 42 42 40 41 41 41 39 38 37 37 39 41 42 41 40 39
0 0 0 0 1 3 4 5 5 9 15 19 23 29 32 31 29 29 28 30 31 31 32 33 36 38 39 39 39 38 37 37 39 40 39 37 35 35 36 36 35 35 35 34
0 1 1 1 3 5 9 11 14 18 21 22 23 26 28 27 26 27 28 29 30 32 33 33 34 34 34 35 36 36 35 36 36 36 35 33 31 29 29 29 28 28 28 27
2 3 3 4 5 8 11 14 17 20 21 19 19 22 24 22 20 24 27 28 29 30 32 32 31 31 31 32 33 33 32 34 33 31 29 27 25 23 23 23 22 22 22 22
4 5 5 4 5 7 10 12 13 15 16 15 16 18 19 19 18 22 27 29 29 28 29 29 29 30 31 32 32 31 30 29 28 26 23 20 17 17 18 18 18 17 17 17
4 6 6 4 5 6 8 10 11 12 13 13 13 14 16 18 18 21 26 28 26 24 23 24 26 29 30 31 31 31 29 26 24 21 17 14 12 12 14 14 13 11 10 10
3 5 6 5 5 7 8 9 11 12 13 13 13 13 15 16 17 20 25 25 22 20 20 22 25 27 28 29 30 29 27 25 23 19 14 11 10 11 12 11 9 7 5 4
Wind_Speed
15 14 13 13 13 13 13 11 9 9 8 7 6 5 9 10 10 12 13 13 13 14 14 13 12 13 12 11 9 8 7 7 5 4 4 4 3 3 3 3 5 5 5 5
15 17 17 14 13 13 15 12 11 10 7 7 6 7 7 10 11 11 13 13 13 14 15 14 13 13 13 11 10 9 8 8 6 4 3 3 3 3 3 2 4 5 4 4
19 16 15 13 14 14 14 12 12 10 9 9 9 8 6 7 7 9 11 13 14 15 16 15 14 13 13 13 12 10 9 9 8 6 5 4 3 2 3 3 4 4 5 5
18 17 15 14 15 14 12 11 12 12 10 8 9 7 6 7 8 10 11 11 13 14 15 15 14 13 13 13 13 10 9 9 8 6 6 6 5 4 4 3 4 4 4 5
17 16 15 16 14 13 13 11 11 12 12 11 10 9 6 7 8 10 11 11 13 14 16 17 16 14 14 14 13 11 10 8 8 6 5 5 4 4 3 4 4 4 4 5
18 15 15 15 13 12 12 12 13 13 11 12 11 10 7 5 7 9 11 11 11 12 14 14 15 13 12 13 13 12 11 9 8 7 6 5 4 3 4 4 5 5 4 4
17 17 15 13 13 13 12 11 9 10 9 9 9 9 5 3 5 6 7 7 10 10 11 11 13 14 12 13 13 13 12 10 10 9 7 6 5 4 4 4 5 5 4 4
15 15 15 14 13 12 12 13 11 11 9 8 6 6 3 1 1 3 3 4 5 7 9 11 12 12 12 13 13 13 13 11 11 10 8 6 6 5 4 5 4 4 4 5
13 12 11 13 13 13 14 13 14 13 14 11 7 5 3 2 2 3 2 5 4 3 5 7 9 10 11 11 11 12 12 12 11 11 9 7 7 6 5 5 5 4 3 3
13 13 12 10 11 15 15 13 9 11 11 13 10 8 4 5 4 4 3 2 4 3 5 6 7 7 9 10 9 11 12 11 10 10 9 9 8 7 5 4 5 4 3 3
13 14 14 12 12 14 13 13 11 10 11 11 10 4 1 4 5 5 4 3 2 2 3 4 5 7 9 10 10 10 11 11 10 10 9 7 8 7 6 4 4 4 3 3
8 11 13 15 13 13 13 12 12 11 10 11 11 4 3 4 3 3 3 4 1 2 3 3 4 4 4 6 9 9 10 11 10 8 8 7 6 6 6 6 4 4 4 4
7 8 10 13 12 13 12 13 13 12 10 11 11 5 3 4 3 4 5 4 3 3 4 5 4 4 3 3 4 7 8 9 9 8 7 7 7 7 6 6 5 5 4 4
5 10 13 14 11 9 11 13 13 13 11 11 11 7 4 3 3 4 5 4 4 5 5 5 5 4 3 3 3 4 5 6 7 7 7 7 6 6 5 5 5 4 4 4
7 12 14 17 18 17 14 14 14 14 13 13 9 6 4 3 3 4 5 6 5 5 5 5 5 4 4 4 3 3 3 3 4 5 5 5 4 4 4 4 4 3 4 4
7 10 13 17 18 18 17 16 15 14 14 15 11 7 2 4 4 4 4 5 5 4 4 5 5 5 4 4 3 3 2 2 3 3 3 3 3 3 3 3 3 2 3 3
9 9 13 15 17 18 18 14 14 12 11 10 9 4 1 2 3 3 4 4 4 3 3 4 4 3 3 2 2 2 2 2 3 3 3 3 2 2 2 2 3 3 4 3
10 9 9 13 14 19 11 8 9 9 8 6 4 1 1 3 4 3 4 4 3 3 3 3 3 3 2 2 2 2 3 2 1 2 2 2 2 2 2 2 2 3 3 3
11 9 10 11 15 16 10 7 7 7 7 6 3 1 1 3 4 4 4 4 4 4 3 3 3 3 3 3 3 3 3 2 1 2 2 2 2 1 1 2 2 2 1 2
13 10 11 12 14 14 7 5 5 5 5 3 3 2 1 1 2 2 4 5 5 4 3 3 3 3 3 4 3 2 1 2 1 1 2 2 2 1 0 1 1 1 1 1
11 13 14 15 15 10 7 7 7 7 2 4 3 2 2 2 3 4 4 4 4 3 3 3 3 3 3 3 3 2 1 1 2 2 2 1 1 0 0 1 1 1 1 1
11 11 11 12 13 9 7 6 3 3 4 4 5 5 5 5 6 4 3 3 3 3 3 3 3 3 3 2 2 2 2 2 2 2 2 2 2 1 1 1 1 1 1 2
8 7 5 5 4 3 5 5 4 4 3 4 4 5 4 3 3 3 2 2 2 2 2 2 2 3 3 2 2 2 2 2 2 2 1 1 1 1 1 1 1 1 1 2
5 5 5 5 4 4 3 3 4 5 5 5 5 4 3 3 3 3 3 3 3 2 2 1 1 2 2 2 2 2 2 2 1 1 0 0 0 0 0 1 1 1 1 1
10 7 6 6 6 5 4 3 4 3 2 2 3 3 3 3 2 2 2 2 2 1 1 1 1 1 1 1 1 1 1 1 1 0 0 1 1 1 0 1 2 1 1 1
9 8 7 6 4 4 4 3 3 3 2 2 2 3 3 2 2 2 2 2 2 2 1 2 2 1 1 1 1 1 1 2 1 0 1 2 1 0 1 1 1 4 2 1
Wind_Direction
228 237 240 238 238 253 271 275 278 272 251 244 244 226 190 186 185 172 171 172 174 173 168 164 165 160 158 156 158 163 167 157 166 172 172 175 176 178 172 171 161 164 181 177
234 235 243 247 250 254 264 269 271 271 265 255 249 252 216 192 196 182 176 174 174 177 170 166 170 169 165 161 162 167 171 167 175 174 172 178 172 182 175 171 154 169 183 177
237 243 241 242 254 255 260 265 274 282 281 269 259 251 245 216 198 191 184 178 173 180 172 170 174 174 170 167 170 175 172 169 181 174 176 178 167 186 172 170 167 182 182 181
245 246 247 246 246 253 258 262 267 278 275 274 267 264 238 222 198 206 192 188 177 174 167 171 176 177 175 172 173 169 166 167 173 176 181 185 182 188 178 176 172 179 188 189
245 245 246 248 251 252 260 268 273 271 271 272 267 273 247 213 201 201 194 195 178 172 172 175 179 178 178 173 171 167 161 165 168 180 187 193 195 186 173 171 165 180 194 198
258 252 248 250 249 250 262 267 267 263 260 258 256 259 256 235 198 205 197 186 174 175 174 173 175 170 175 173 169 166 163 168 170 180 184 186 197 185 175 173 170 187 192 200
246 248 245 245 246 238 242 250 257 252 245 253 262 255 237 221 206 201 188 178 168 171 170 167 171 170 173 173 170 166 165 171 175 181 188 184 193 193 187 185 188 192 192 196
243 240 232 232 237 246 242 242 246 261 263 261 247 250 262 118 65 91 122 126 141 162 171 171 175 172 174 176 172 168 168 173 178 184 189 187 190 197 199 204 202 198 198 191
263 257 236 229 230 236 245 245 254 262 265 267 250 236 227 182 127 92 116 122 133 156 160 163 169 168 171 179 175 169 167 174 181 185 184 187 191 198 198 198 206 207 204 195
270 278 267 244 231 230 241 251 257 254 264 266 249 236 218 189 175 156 153 139 140 154 177 164 163 170 169 180 180 174 168 173 179 183 187 189 194 197 198 203 194 205 205 200
262 268 269 256 236 241 231 241 257 269 267 266 266 261 184 155 159 171 161 147 148 188 150 143 156 163 171 175 180 182 169 171 180 185 186 189 185 193 195 201 202 199 202 199
272 266 267 265 253 242 246 242 242 251 261 271 274 244 147 135 155 147 145 130 119 147 114 125 124 133 156 171 171 170 170 174 178 181 182 188 184 185 191 198 201 199 201 200
323 285 267 259 248 232 241 245 245 255 259 258 265 248 158 125 115 108 112 121 113 80 89 94 94 99 117 136 152 164 169 174 175 177 178 181 188 190 193 195 195 200 203 208
282 271 270 267 270 271 254 253 249 252 255 256 254 241 191 134 135 120 113 99 92 81 65 72 81 76 86 115 113 128 154 168 167 169 178 185 192 191 191 194 197 200 202 208
270 267 270 274 277 277 266 261 252 246 254 262 268 253 199 131 106 106 110 104 93 81 68 69 72 69 67 69 80 98 122 135 152 157 170 182 186 181 190 194 192 195 200 211
272 277 283 276 272 273 267 260 254 249 251 258 259 256 177 116 119 130 122 117 113 99 85 77 73 67 59 53 57 67 91 105 124 142 150 148 161 166 178 183 178 187 207 219
270 275 274 271 274 274 258 257 259 256 256 260 264 264 165 131 105 121 125 117 110 106 104 95 86 84 72 57 63 82 70 81 96 105 114 135 157 168 174 189 185 194 206 214
260 267 268 269 269 260 267 272 269 265 271 267 265 264 135 100 87 85 92 112 118 106 92 84 85 89 95 78 75 88 89 78 95 113 123 133 152 158 172 191 201 207 209 212
246 248 259 262 261 257 254 274 282 279 277 303 328 7 110 116 118 107 79 75 92 85 73 73 69 67 66 65 59 74 95 116 129 106 89 81 94 138 182 207 218 216 206 207
230 228 244 254 260 263 267 286 293 281 266 351 30 72 83 142 203 126 76 72 67 66 68 65 61 57 56 55 57 57 73 95 94 87 83 86 80 80 211 181 220 219 203 209
233 229 236 247 255 258 290 300 284 260 276 13 23 54 62 61 56 79 75 70 67 68 67 66 64 56 55 52 58 45 41 52 55 65 66 70 73 67 144 131 150 203 218 202
261 254 245 248 253 258 334 322 332 33 42 36 42 55 59 67 79 77 70 67 70 63 63 62 65 65 59 51 64 55 44 36 48 62 58 47 35 336 45 79 217 203 223 242
259 275 285 287 281 3 15 13 25 36 32 46 52 55 62 66 73 66 57 54 58 66 64 58 67 76 68 64 79 76 49 44 52 62 57 39 29 26 27 317 271 237 209 239
294 309 290 286 284 314 344 4 5 11 18 37 52 47 51 51 47 38 30 22 27 49 53 51 84 94 82 67 61 63 69 69 72 88 65 329 188 194 299 288 287 286 277 243
298 297 291 281 274 296 319 342 342 339 351 20 37 31 25 34 38 25 24 13 20 47 24 26 89 111 109 96 86 82 86 83 71 43 314 286 270 238 64 359 351 327 348 276
282 286 280 281 287 294 311 337 338 331 338 12 15 4 4 11 356 356 12 33 42 50 67 63 58 69 91 88 76 70 84 89 82 327 289 288 281 232 153 114 45 32 14 36